Weather Service Report


806 
ASUS41 KAKQ 010510
RWRAKQ

REGIONAL WEATHER ROUNDUP
NATIONAL WEATHER SERVICE WAKEFIELD VA
1200 AM EST SUN FEB 01 2015

Note: "fair" indicates few or no clouds below 12,000 feet with no
significant weather and/or obstructions to visibility. * = Denotes
station may not report precipitation (e.g., rain,snow,etc.),
thunder or fog.

VAZ042-051-052>054-056-010600-
NORTHERN VIRGINIA
  
CITY           SKY/WX    TMP DP  RH WIND       PRES   REMARKS
WASH NATIONAL  PTCLDY    29  16  58 CALM      30.29R                  
DULLES         MOCLDY    19  12  74 CALM      30.26S                  
FORT BELVOIR   PTCLDY    21  14  76 NW1       30.29S                  
QUANTICO       PTCLDY    23  14  68 NW5       30.30R                  
FREDERICKSBRG* MOCLDY    24  15  69 CALM      30.27S                  
STAFFORD*      MOCLDY    20  13  76 CALM      30.32R                  
WARRENTON      PTCLDY    19  19  99 CALM      30.26S                  
CULPEPER*      MOCLDY    19  16  86 CALM      30.26S                  
MANASSAS*      PTCLDY    19  18  93 CALM      30.28S                  
LEESBURG*      PTCLDY    21  18  86 CALM      30.27S                  
WINCHESTER     PTCLDY    25  10  54 CALM      30.23S                  
FRONT ROYAL*   FAIR      23  12  63 CALM      30.23S                  
LURAY*         FAIR      25  19  80 CALM      30.23R                  
$$

VAZ048-049-060>072-079>083-010600-
CENTRAL AND SOUTH CENTRAL VIRGINIA
  
CITY           SKY/WX    TMP DP  RH WIND       PRES   REMARKS
RICHMOND       PTCLDY    27  13  55 CALM      30.25F                  
CHESTERFIELD*  FAIR      27   7  43 CALM      30.26F                  
PETERSBURG*    CLEAR     23  18  79 CALM      30.26F                  
HANOVER        PTCLDY    24  12  60 CALM      30.27S                  
TAPPAHANNOCK*  PTCLDY    25   9  50 CALM      30.28S                  
QUINTON*       FAIR      24  14  66 CALM      30.26S                  
CHARLOTTSVILLE CLOUDY    28   7  41 CALM      30.23S                  
GORDONSVILLE*  FAIR      23  16  73 CALM      30.25R                  
ORANGE*        MOCLDY    27  18  69 CALM      30.27R                  
LOUISA*        MOCLDY    27  12  54 CALM      30.23S                  
BUMPASS*       FAIR      25  18  72 CALM      30.25R                  
FARMVILLE*     PTCLDY    29  12  50 CALM      30.24S                  
CREWE*         FAIR      31   8  36 CALM      30.25S                  
FORT PICKETT*  FAIR      29  13  49 SW5       30.25S                  
CHASE CITY*    FAIR      30  20  65 CALM      30.25F                  
CLARKSVILLE*   FAIR      32  14  47 CALM      30.25F                  
SOUTH HILL*    PTCLDY    28  14  56 SW5       30.32S                  
LAWRENCEVILLE* FAIR      30  12  47 CALM      30.25F                  
EMPORIA*       CLEAR     23  18  80 CALM      30.29S                  
$$

VAZ088>098-010600-
SOUTHEAST VIRGINIA
  
CITY           SKY/WX    TMP DP  RH WIND       PRES   REMARKS
NORFOLK        CLEAR     28  13  53 SW5       30.27F                  
VIRGINIA BEACH CLEAR     25  15  66 CALM      30.27F                  
NORFOLK NAVAL  CLEAR     30  16  56 CALM      30.28F                  
WEST POINT*    PTCLDY    24  16  71 CALM      30.29F                  
SALUDA*        FAIR      22  16  75 CALM      30.28S                  
NEWPORT NEWS   CLEAR     26  17  68 NE5       30.27F                  
LANGLEY AFB    CLEAR     26  19  77 SE1       30.27F                  
FORT EUSTIS    CLEAR     27  21  78 VRB1      30.25F                  
WILLIAMSBURG*    N/A     27  21  80 S3        30.28S                  
HR EXEC AP*    FAIR      19  16  86 CALM      30.30F                  
FRANKLIN*      CLEAR     23  18  80 CALM      30.28F                  
WAKEFIELD      CLEAR     28  17  63 S3        30.27F                  
$$

VAZ020-022-025-037-045-010600-
WEST CENTRAL AND SOUTHWEST VIRGINIA
  
CITY           SKY/WX    TMP DP  RH WIND       PRES   REMARKS
STAUNTON*      CLOUDY    25  17  73 CALM      30.23S                  
WAYNESBORO*    FAIR      35   1  23 SW5       30.21S                  
HOT SPRINGS VA MOCLDY    26   2  35 W17G24    30.10R WCI  14          
LYNCHBURG      MOCLDY    32   8  36 W3        30.25S                  
DANVILLE       CLOUDY    32  18  56 W3        30.26F                  
SOUTH BOSTON*  FAIR      27  16  64 CALM      30.26F                  
MARTINSVILLE   CLOUDY    30  19  61 CALM      30.26F                  
ROANOKE        CLOUDY    36   9  32 NW5       30.25F                  
BLACKSBURG     CLOUDY    30  14  50 CALM      30.25R                  
DUBLIN*        CLOUDY    34  14  44 SW3       30.23F                  
MARION*        CLOUDY    34  11  38 W10       30.23F                  
HILLSVILLE*    CLOUDY    32   9  38 CALM      30.20S                  
RICHLANDS*     FAIR      33   8  35 W7        30.21S                  
WISE*          CLOUDY    32  18  55 CALM      30.22S                  
ABINGDON*      CLOUDY    33  18  55 CALM      30.24F                  
$$

MDZ021>025-VAZ099-100-010600-
SOUTHERN MARYLAND AND THE DELMARVA PENINSULA
  
CITY           SKY/WX    TMP DP  RH WIND       PRES   REMARKS
PATUXENT RIVER PTCLDY    20  10  65 SW3       30.28S                  
BAY BRIDGE APT   N/A     25  18  74 CALM      30.29S                  
LEONARDTOWN    PTCLDY    21  12  68 CALM      30.29S                  
DOVER          CLEAR     21  11  63 W2        30.28R                  
GEORGETOWN     CLEAR     20  11  68 CALM      30.28S                  
EASTON         CLEAR     24  15  69 CALM      30.31F                  
CAMBRIDGE      CLEAR     23  16  74 CALM      30.28S                  
SALISBURY      CLEAR     20  11  68 CALM      30.28S                  
OCEAN CITY     CLEAR     18  13  80 W3        30.28F                  
WALLOPS ISLAND CLEAR     20  14  77 CALM      30.29F                  
ACCOMACK*      PTCLDY    21  14  73 S3        30.29R                  
$$

NCZ012>017-030>032-010600-
NORTH CENTRAL AND EASTERN NORTH CAROLINA
  
CITY           SKY/WX    TMP DP  RH WIND       PRES   REMARKS
ROANOKE RAPIDS FAIR      30  21  69 SW3       30.28F                  
RALEIGH        MOCLDY    33  17  51 CALM      30.28S                  
ELIZABETH CITY CLEAR     30  22  72 S7        30.29F                  
AHOSKIE*       CLEAR     24  16  71 CALM      30.29F                  
EDENTON*       CLEAR     29  22  72 SW6       30.30F                  
CURRITUCK*     CLEAR     28  21  75 CALM      30.30F                  
KILL DEVIL HLS CLEAR     34  21  60 SW6       30.29F                  
MANTEO         CLEAR     34  21  60 W3        30.31S                  
CAPE HATTERAS  CLEAR     29  24  82 W5        30.32F                  
TARBORO*       FAIR      26  24  93 CALM      30.30F                  
GOLDSBORO      CLEAR     36  15  42 CALM      30.28F                  
WASHINGTON     CLEAR     31  17  57 S3        30.30F                  
GREENVILLE     CLEAR     30  19  64 CALM      30.30F                  
NEW BERN       CLEAR     29  20  69 CALM      30.32F                  
WILMINGTON     CLEAR     32  26  78 CALM      30.33F                  
$$

VAZ048-010600-
ELSEWHERE
  
CITY           SKY/WX    TMP DP  RH WIND       PRES   REMARKS
HARRISBURG PA  PTCLDY    11   7  84 CALM      30.25R                  
BALTIMORE      PTCLDY    19  11  70 CALM      30.27S                  
ANNAPOLIS      CLEAR     23  15  71 CALM      30.28S                  
ANDREWS AFB    PTCLDY    20  13  75 CALM      30.26S                  
PHILADELPHIA   PTCLDY    23  10  57 W10       30.27R WCI  12          
HENDERSON NC   PTCLDY    30  16  56 CALM      30.26S                  
GREENSBORO     CLOUDY    38  14  37 SW5       30.23F                  
ROCKY MOUNT    CLEAR     27  20  75 CALM      30.29F                  
$$

VAZ100-010600-
MARINE
  
STATION/POSITION TIME  TEMP    WIND        PRES    WAVE   SWELL
                       AIR SEA DIR/SP/G            HT/PER HT/PER
                 (UTC) (F)     (DEG/KT/KT) (MB)    (FT/S) (FT/S)
BRANDYWINE LGT   0500   29 34  280/ 11/ 12 1025.4R
CAPE MAY NJ      0500   29                 1024.8S
LEWES DE         0500   25 35  270/  4/  5 1025.1S
15NM E FENWICK I 0500   31 39              1024.6F   3/ 4
OCEAN-CITY-INLET 0500   26 33  290/  4/  5 1024.9F
WACHAPREAGUE VA  0500   23 33  260/  2/  2 1025.5R
THOMAS POINT MD  0500   29 34  320/  2/  2 1026.5S
GOOSES REEF MD   0500   31 34  VRB  2/  4  1024.4F   0
COVE POINT MD    0500   29     230/  1/  2 1025.1S
SOLOMONS ISLAND  0500      36                N/A
BISHOPS HEAD MD  0500   31 31     CALM     1024.8S
PINEY POINT MD   0500          120/  3/  4   N/A
POTOMAC MD       0500   31 36   50/  2/  4 1024.2F   0
CAMBRIDGE MD     0500   24 33  230/  3/  4 1025.2F
LEWISETTA VA     0500   27 33     CALM     1025.1S
RAPPAHANNOCK LGT 0500          100/  4/  4 1025.9F
STINGRAY PT      0500   34 36  140/  6/  8 1025.8F   0
YORK RVR RNG VA  0500   36     160/  6/  7 1024.6F
YORKTOWN VA      0500   31 38  120/  3/  4 1024.9F
JAMESTOWN VA     0500   32 39  160/  2/  4   N/A     0
DOMINION TERM VA 0500   34     200/  4/  6 1025.1F
KIPTOPEKE VA     0500      41  100/  4/  4   N/A
CHES BAY BRIDGE  0500   35 39  180/  6/  7 1024.7F
CAPE HENRY VA    0500   33     190/  7/  9 1023.9F
CHESAPEAKE LGHT  0400   37     240/  4/  5 1026.4S
WILLOUBY STN VA  0500   34     170/  5/  6 1025.4F
S CRANEY ISL VA  0500          180/  5/  7 1025.1F
CAPE HENRY BUOY  0400      41                N/A     2/ 7
1ST LANDING BUOY 0500   35 38  180/  4/  6 1024.8F   1
CAPE CHARLES BUO 0500      40                N/A     2/ 8   2/ 8
OFFSHORE WE BUOY 0500      43                N/A     3/ 7   3/ 7
64NM E OF VA BCH 0500   41 48  290/ 10/ 12 1025.1F   5/ 8   5/ 8
DUCK PIER NC     0500   36 40  210/  7/  8 1025.1F
44100 DUCK FRF   0500      43                N/A     4/ 7
44056 DUCK FRF   0500      41                N/A     3/ 8
OREGON INLET NC  0500   37 39  230/  9/  9 1026.3S
HATTERAS NC      0500   38 42  250/  5/  5 1026.8F

Return to Home page


Western Regional Climate Center, wrcc@dri.edu